SCP
-0 -0 -0 0 0 0 0 0 -0 -0 -0 -0 -0 -0 -0 -0 -0 -0 -0 -0 0 0 0 0 0 0 0 0 -0 0 -0 0 -0 -0 -0 0 0 0 0 0 0 0 0
-0 -0 0 0 0 0 0 0 -0 -0 -0 -0 -0 -0 -0 -0 -0 -0 -0 -0 -0 0 0 0 -0 0 0 0 -0 -0 0 -0 0 -0 -0 -0 -0 0 0 0 0 0 0
-0 -0 -0 0 0 0 0 -0 -0 -0 -0 -0 -0 -0 -0 -0 -0 -0 -0 -0 -0 -0 -0 -0 -0 0 0 0 0 0 -0 -0 -0 0 -0 -0 -0 0 -0 0 0 -0 -0
0 -0 -0 0 0 -0 -0 -0 -0 -0 -0 -0 -0 -0 -0 -0 -0 -0 -0 -0 -0 -0 0 0 0 0 0 0 0 0 0 0 0 -0 -0 -0 -0 -0 -0 0 -0 0 0
0 -0 -0 -0 -0 0 0 0 0 -0 -0 -0 -0 -0 -0 -0 -0 -0 -0 -0 -0 -0 0 0 0 0 0 0 0 0 0 0 -0 0 0 0 0 0 -0 -0 0 0 -0
-0 -0 -0 -0 -0 -0 0 -0 0 0 -0 -0 -0 -0 -0 -0 -0 -0 -0 -0 -0 0 -0 0 0 -0 -0 -0 0 0 0 -0 -0 0 0 0 0 -0 -0 -0 -0 -0 -0
-0 -0 -0 -0 -0 -0 -0 -0 0 0 0 0 0 -0 -0 -0 -0 -0 -0 0 -0 -0 0 0 0 -0 -0 0 -0 0 -0 -0 0 0 0 0 0 0 -0 -0 -0 -0 -0
-0 0 -0 -0 -0 -0 -0 -0 -0 -0 -0 0 0 -0 -0 -0 -0 -0 0 0 0 0 0 0 0 -0 0 0 0 0 0 -0 -0 0 0 0 0 -0 -0 -0 0 0 0
-0 -0 -0 -0 -0 -0 -0 -0 -0 -0 -0 -0 -0 -0 -0 -0 -0 0 0 -0 -0 -0 -0 -0 0 0 -0 0 -0 -0 -0 -0 0 0 0 0 0 0 -0 0 0 0 0
-0 -0 -0 -0 -0 -0 0 -0 -0 -0 -0 -0 -0 -0 -0 -0 -0 0 -0 0 -0 -0 -0 0 0 -0 -0 0 0 0 -0 -0 0 0 0 0 0 0 0 0 0 0 0
0 0 0 0 -0 -0 -0 0 -0 -0 -0 0 0 0 0 -0 -0 -0 0 0 -0 0 0 0 0 0 0 0 0 0 0 0 0 0 0 0 0 0 0 0 0 0 0
0 0 0 0 0 -0 -0 0 -0 -0 -0 -0 -0 -0 -0 0 -0 -0 0 0 0 0 0 0 1 0 0 0 0 1 0 0 0 0 0 0 0 0 0 0 0 0 0
0 0 -0 0 0 -0 0 -0 -0 -0 -0 -0 0 -0 0 0 -0 -0 -0 -0 -0 -0 0 0 0 1 1 1 0 0 0 0 0 0 0 0 0 0 0 0 0 0 0
0 -0 -0 -0 -0 -0 0 -0 -0 -0 -0 -0 -0 -0 -0 -0 -0 -0 -0 -0 0 0 0 0 0 0 0 0 0 0 0 0 0 0 0 0 0 0 0 0 0 0 0
-0 -0 0 -0 -0 -0 -0 -0 -0 -0 -0 -0 -0 -0 0 0 -0 0 0 0 0 0 0 0 0 0 0 0 0 0 0 0 0 0 0 0 1 1 1 1 1 0 1
-0 -0 -0 -0 -0 -0 -0 -0 -0 0 0 -0 0 0 0 0 0 0 -0 0 0 0 0 0 0 0 0 0 0 0 0 0 0 0 0 0 1 1 1 1 1 1 1
-0 -0 -0 -0 -0 0 -0 -0 -0 -0 0 0 0 0 -0 0 0 0 -0 0 0 0 0 0 0 0 0 0 0 0 0 0 0 0 0 0 1 1 1 1 1 1 1
-0 -0 0 -0 -0 0 -0 -0 0 0 0 0 0 0 0 0 -0 0 0 -0 0 0 0 0 0 0 0 0 0 0 0 0 0 0 0 0 0 1 1 1 1 2 1
-0 0 0 -0 -0 0 -0 -0 0 0 -0 -0 -0 0 0 0 0 -0 0 0 0 0 0 0 0 0 0 0 0 0 0 0 0 0 0 0 0 0 0 1 1 1 1
-0 -0 -0 -0 -0 0 -0 -0 -0 0 -0 -0 -0 -0 0 0 0 -0 0 0 0 0 0 0 0 0 0 0 0 0 0 0 0 0 0 0 0 1 0 0 1 1 1
-0 -0 -0 -0 -0 -0 -0 -0 -0 -0 -0 -0 0 0 0 0 0 0 0 -0 0 0 0 0 0 0 0 0 0 0 0 0 0 0 0 0 0 1 1 0 1 1 1
-0 -0 -0 -0 -0 0 -0 -0 -0 0 -0 -0 -0 0 0 0 0 0 0 0 0 0 0 0 0 0 0 0 0 0 0 0 0 0 0 0 0 0 1 1 1 1 0
-0 0 -0 0 -0 0 -0 0 0 -0 0 0 -0 0 0 0 0 0 0 0 0 0 0 0 0 0 0 0 0 0 0 0 0 0 0 0 0 0 0 0 0 0 0
0 0 0 0 -0 -0 0 -0 0 0 -0 -0 -0 -0 -0 0 0 0 0 0 0 0 0 0 0 0 0 0 0 0 0 0 0 0 0 0 0 0 0 0 0 0 0
-0 0 0 0 -0 -0 -0 -0 -0 -0 -0 -0 -0 0 -0 0 0 0 0 0 0 0 0 0 0 0 0 0 0 0 0 0 0 0 0 0 0 -0 -0 0 0 0 0
-0 0 0 0 -0 -0 -0 0 0 -0 0 -0 -0 -0 -0 -0 0 0 0 0 0 0 0 0 0 0 0 0 0 0 0 0 0 0 0 0 0 0 -0 -0 0 0 0
Wind_Speed_500mb
38 38 39 38 36 34 28 28 28 27 27 30 33 32 34 36 37 38 39 40 39 41 44 45 48 49 48 49 53 55 53 47 47 49 47 48 48 43 39 41 41 42 38
48 42 40 40 35 31 28 25 25 24 23 24 25 28 30 32 33 35 37 38 39 40 43 45 48 50 51 56 61 63 60 56 40 40 43 44 39 36 39 40 41 40 39
50 45 43 42 38 32 29 26 25 24 24 23 22 22 25 30 31 31 33 36 38 41 41 43 45 52 53 54 53 54 52 55 46 37 40 44 43 41 41 41 41 40 40
52 47 43 40 37 34 29 25 25 24 25 25 26 25 25 28 29 30 34 34 38 39 39 41 48 53 50 52 51 45 37 35 35 34 37 42 40 38 38 37 37 37 37
51 48 44 39 33 31 28 26 26 25 25 26 27 28 27 27 30 32 33 34 36 38 39 41 47 51 51 49 42 43 45 45 30 27 31 37 38 36 33 34 36 35 33
51 47 42 36 33 31 30 28 29 28 27 27 29 29 30 30 30 30 32 32 34 35 36 40 44 51 54 48 43 48 40 37 22 19 31 35 35 32 31 32 34 33 32
47 46 40 36 33 31 31 29 29 27 28 28 28 30 30 31 31 32 32 32 36 32 36 40 43 49 48 47 42 48 38 25 20 26 29 33 31 32 30 31 31 31 29
45 43 39 34 30 30 28 30 30 29 28 28 29 30 31 32 33 34 32 33 35 33 36 39 40 42 44 48 44 46 32 23 23 25 29 32 31 29 32 30 28 29 30
45 35 34 34 29 29 27 29 28 28 29 31 31 32 33 34 35 35 35 34 35 37 37 37 40 42 48 38 32 35 35 24 25 22 26 29 29 29 28 25 27 29 29
39 26 27 29 26 29 27 27 27 28 31 35 37 39 37 34 36 37 37 36 39 39 37 41 48 52 50 41 32 30 22 23 23 17 22 27 26 25 25 25 26 25 28
36 33 34 31 32 27 29 27 26 32 35 40 38 42 42 35 36 39 38 40 44 45 47 48 51 47 43 39 21 26 24 22 17 15 17 22 23 23 23 23 22 22 22
45 33 34 29 32 34 32 29 29 36 36 32 36 34 35 36 33 41 40 44 41 41 47 47 41 33 32 25 18 14 20 21 22 18 16 18 19 21 20 20 20 20 19
42 37 30 32 33 29 26 41 40 36 29 36 42 42 31 28 37 40 44 38 33 36 37 32 34 37 27 25 21 12 18 15 22 18 15 17 18 19 19 19 18 19 18
52 50 31 34 44 32 17 35 37 39 35 33 38 35 29 27 41 40 36 22 13 22 28 31 32 24 29 26 25 15 22 13 25 24 20 20 20 20 20 19 18 17 17
54 47 34 32 35 32 30 32 31 34 29 35 36 34 23 33 37 29 22 23 23 27 32 29 34 24 15 23 20 38 20 14 21 28 32 29 28 25 21 19 17 17 16
52 48 42 38 30 34 35 31 34 29 30 29 26 23 22 22 28 27 25 24 17 19 25 25 36 19 26 17 14 21 17 10 15 17 21 26 29 31 26 23 23 23 21
57 49 40 48 37 44 42 34 39 37 35 34 27 26 28 27 28 30 25 18 23 19 17 27 21 19 19 26 30 30 21 19 6 13 15 19 20 24 31 27 27 26 25
57 38 27 51 37 32 36 40 27 28 26 27 26 27 27 25 28 30 25 21 15 24 30 22 27 18 13 12 18 17 23 24 17 13 20 18 22 18 27 25 30 33 28
43 27 36 52 30 33 40 35 29 17 21 24 23 24 26 20 36 29 23 16 30 23 19 17 22 15 16 18 9 18 6 13 12 16 12 14 14 19 21 21 20 29 27
41 37 34 32 23 36 40 27 29 13 17 20 21 19 22 25 29 29 23 27 31 20 18 19 16 12 13 22 11 8 9 9 3 8 6 8 12 15 15 23 12 19 20
45 48 42 39 32 47 38 29 27 18 14 15 22 22 20 23 29 25 22 34 28 20 22 16 14 12 15 11 21 8 7 6 9 6 9 6 5 14 10 20 26 16 9
50 50 41 42 37 36 45 35 26 23 20 16 18 19 17 16 22 23 28 34 26 22 19 27 21 18 20 12 13 8 2 5 6 9 6 6 5 11 10 15 23 21 10
51 50 47 41 37 38 42 25 25 30 28 27 20 19 23 16 25 30 32 26 21 16 20 32 21 17 18 21 16 13 6 7 6 10 3 12 6 12 6 6 11 21 20
54 44 51 48 38 44 37 31 25 33 24 25 19 22 26 19 23 21 22 28 28 16 24 28 25 17 17 15 8 4 10 12 10 8 8 2 13 8 7 11 12 14 17
56 47 41 51 43 49 43 33 32 29 30 28 27 30 28 21 21 19 21 18 23 28 20 30 19 15 15 17 5 1 3 6 7 11 13 13 14 12 15 6 8 9 12
58 53 47 49 48 57 46 41 38 27 26 34 35 24 26 24 23 22 17 18 26 34 29 30 18 27 17 18 7 6 1 7 11 17 22 7 11 8 12 7 7 6 7
Wind_Direction_500mb
149 138 136 135 128 121 117 108 102 95 91 92 92 93 94 93 92 88 88 90 90 93 97 98 96 99 102 103 100 94 92 96 93 97 96 94 90 91 88 87 87 87 87
143 135 133 141 136 124 118 113 104 98 96 95 98 101 100 100 97 94 91 93 92 94 97 97 98 101 102 99 96 94 92 89 85 91 96 93 91 92 91 87 85 88 85
143 138 134 129 130 125 119 112 106 104 102 104 104 100 100 104 101 100 99 95 95 95 94 97 99 107 106 103 101 96 95 89 85 85 90 92 92 87 86 88 87 87 86
143 139 134 130 126 123 120 114 110 110 103 103 102 99 102 109 106 106 102 100 102 98 98 98 105 114 106 103 102 101 102 92 102 82 87 93 90 89 89 85 87 86 83
140 140 135 132 127 124 118 115 112 106 104 105 107 101 103 112 111 107 109 106 110 101 96 99 108 115 110 104 99 102 101 105 95 73 92 95 90 88 84 85 89 81 87
138 140 135 131 126 122 121 118 119 108 103 105 103 105 103 109 112 115 112 111 110 103 99 99 108 112 117 114 99 108 104 106 82 89 99 92 94 94 92 85 87 94 85
139 137 129 129 126 120 121 115 113 109 109 105 106 106 106 108 113 115 114 110 109 109 105 103 105 117 121 109 102 106 102 89 66 102 98 98 92 94 93 91 80 86 87
139 131 129 131 124 120 120 118 112 109 105 105 106 107 107 111 114 116 115 113 106 106 106 96 107 118 121 109 106 109 103 64 88 99 95 94 94 90 91 88 80 84 84
143 136 132 131 131 124 123 115 110 106 106 106 106 103 105 109 115 116 118 115 108 102 100 97 101 111 122 116 106 106 106 85 82 95 92 93 93 88 90 88 85 82 83
131 139 132 128 125 127 124 112 109 109 107 110 110 102 98 106 114 117 114 109 103 98 95 98 102 107 115 115 103 94 104 86 53 85 90 91 98 97 84 84 82 82 80
127 115 119 124 119 115 110 107 111 114 114 114 108 101 95 97 111 112 109 107 106 105 102 103 110 110 108 118 112 80 109 93 76 92 85 90 92 90 87 85 84 82 77
134 126 125 114 108 114 114 105 113 120 119 113 99 112 98 80 108 113 110 111 114 116 110 110 113 103 91 88 105 94 111 65 68 70 69 83 86 87 85 83 82 81 77
138 142 139 134 128 127 118 109 105 113 109 106 109 108 103 92 117 115 112 117 119 110 106 104 95 78 103 87 83 129 149 80 52 54 63 71 79 82 79 77 76 73 70
143 157 151 136 149 135 128 122 114 114 107 108 110 114 120 116 124 119 116 127 97 108 108 107 97 88 90 76 78 113 148 68 52 49 58 64 68 68 69 67 65 64 60
151 156 146 131 145 145 132 127 112 127 114 116 117 130 133 124 132 119 115 94 107 112 119 114 113 105 119 147 108 111 113 100 63 63 61 62 60 57 57 59 59 57 54
156 164 148 144 138 148 149 129 132 132 129 131 128 136 139 119 129 124 139 144 145 117 120 109 122 125 89 150 157 150 126 82 81 73 52 48 54 53 55 56 56 55 55
158 159 158 148 135 141 152 137 149 146 149 148 145 140 155 153 156 149 145 152 144 137 140 131 128 116 112 91 86 80 139 190 215 78 69 47 40 42 45 58 55 53 53
165 153 156 173 150 152 146 146 158 154 168 159 161 150 157 165 169 162 150 146 130 126 140 145 139 136 147 115 81 75 83 87 123 80 84 63 52 46 43 53 58 53 50
166 152 148 164 174 159 151 152 159 148 132 165 137 151 173 187 157 163 151 151 145 132 140 130 135 115 158 139 115 78 104 73 59 76 71 63 58 26 32 31 56 49 48
172 156 171 167 169 155 158 173 162 154 155 138 118 142 148 168 167 172 169 156 164 151 161 129 136 108 134 159 204 123 93 84 352 340 90 42 43 26 27 35 55 52 52
175 162 178 181 181 162 164 143 156 159 156 118 150 125 131 150 171 164 166 165 158 160 154 164 142 120 119 130 168 159 161 191 244 287 271 112 51 352 19 20 15 32 66
183 176 184 192 193 174 154 156 181 168 178 148 154 139 128 132 178 165 162 167 157 163 168 178 154 132 102 101 148 81 192 254 233 221 196 117 248 291 308 356 21 33 50
184 185 193 193 195 175 167 178 181 191 176 170 171 165 156 164 156 151 156 159 167 170 180 163 162 144 117 104 105 61 99 52 157 179 107 198 227 207 260 303 347 33 23
188 191 199 207 200 168 173 194 190 194 189 172 176 160 165 173 180 161 176 172 181 178 179 181 167 156 144 131 136 61 48 76 61 198 198 86 174 138 229 262 290 13 14
192 197 209 210 205 182 182 196 206 190 183 193 179 164 166 174 169 178 194 184 191 167 173 171 174 187 175 157 20 209 44 30 19 344 291 218 201 155 113 76 341 355 352
198 204 208 211 199 189 188 191 205 206 186 202 181 192 180 179 180 189 192 190 172 167 177 176 179 186 201 177 174 86 339 51 18 28 28 268 228 193 152 160 338 308 325
Wind_Speed_850mb
38 38 39 38 36 34 28 28 28 27 27 30 33 32 34 36 37 38 39 40 39 41 44 45 48 49 48 49 53 55 53 47 47 49 47 48 48 43 39 41 41 42 38
48 42 40 40 35 31 28 25 25 24 23 24 25 28 30 32 33 35 37 38 39 40 43 45 48 50 51 56 61 63 60 56 40 40 43 44 39 36 39 40 41 40 39
50 45 43 42 38 32 29 26 25 24 24 23 22 22 25 30 31 31 33 36 38 41 41 43 45 52 53 54 53 54 52 55 46 37 40 44 43 41 41 41 41 40 40
52 47 43 40 37 34 29 25 25 24 25 25 26 25 25 28 29 30 34 34 38 39 39 41 48 53 50 52 51 45 37 35 35 34 37 42 40 38 38 37 37 37 37
51 48 44 39 33 31 28 26 26 25 25 26 27 28 27 27 30 32 33 34 36 38 39 41 47 51 51 49 42 43 45 45 30 27 31 37 38 36 33 34 36 35 33
51 47 42 36 33 31 30 28 29 28 27 27 29 29 30 30 30 30 32 32 34 35 36 40 44 51 54 48 43 48 40 37 22 19 31 35 35 32 31 32 34 33 32
47 46 40 36 33 31 31 29 29 27 28 28 28 30 30 31 31 32 32 32 36 32 36 40 43 49 48 47 42 48 38 25 20 26 29 33 31 32 30 31 31 31 29
45 43 39 34 30 30 28 30 30 29 28 28 29 30 31 32 33 34 32 33 35 33 36 39 40 42 44 48 44 46 32 23 23 25 29 32 31 29 32 30 28 29 30
45 35 34 34 29 29 27 29 28 28 29 31 31 32 33 34 35 35 35 34 35 37 37 37 40 42 48 38 32 35 35 24 25 22 26 29 29 29 28 25 27 29 29
39 26 27 29 26 29 27 27 27 28 31 35 37 39 37 34 36 37 37 36 39 39 37 41 48 52 50 41 32 30 22 23 23 17 22 27 26 25 25 25 26 25 28
36 33 34 31 32 27 29 27 26 32 35 40 38 42 42 35 36 39 38 40 44 45 47 48 51 47 43 39 21 26 24 22 17 15 17 22 23 23 23 23 22 22 22
45 33 34 29 32 34 32 29 29 36 36 32 36 34 35 36 33 41 40 44 41 41 47 47 41 33 32 25 18 14 20 21 22 18 16 18 19 21 20 20 20 20 19
42 37 30 32 33 29 26 41 40 36 29 36 42 42 31 28 37 40 44 38 33 36 37 32 34 37 27 25 21 12 18 15 22 18 15 17 18 19 19 19 18 19 18
52 50 31 34 44 32 17 35 37 39 35 33 38 35 29 27 41 40 36 22 13 22 28 31 32 24 29 26 25 15 22 13 25 24 20 20 20 20 20 19 18 17 17
54 47 34 32 35 32 30 32 31 34 29 35 36 34 23 33 37 29 22 23 23 27 32 29 34 24 15 23 20 38 20 14 21 28 32 29 28 25 21 19 17 17 16
52 48 42 38 30 34 35 31 34 29 30 29 26 23 22 22 28 27 25 24 17 19 25 25 36 19 26 17 14 21 17 10 15 17 21 26 29 31 26 23 23 23 21
57 49 40 48 37 44 42 34 39 37 35 34 27 26 28 27 28 30 25 18 23 19 17 27 21 19 19 26 30 30 21 19 6 13 15 19 20 24 31 27 27 26 25
57 38 27 51 37 32 36 40 27 28 26 27 26 27 27 25 28 30 25 21 15 24 30 22 27 18 13 12 18 17 23 24 17 13 20 18 22 18 27 25 30 33 28
43 27 36 52 30 33 40 35 29 17 21 24 23 24 26 20 36 29 23 16 30 23 19 17 22 15 16 18 9 18 6 13 12 16 12 14 14 19 21 21 20 29 27
41 37 34 32 23 36 40 27 29 13 17 20 21 19 22 25 29 29 23 27 31 20 18 19 16 12 13 22 11 8 9 9 3 8 6 8 12 15 15 23 12 19 20
45 48 42 39 32 47 38 29 27 18 14 15 22 22 20 23 29 25 22 34 28 20 22 16 14 12 15 11 21 8 7 6 9 6 9 6 5 14 10 20 26 16 9
50 50 41 42 37 36 45 35 26 23 20 16 18 19 17 16 22 23 28 34 26 22 19 27 21 18 20 12 13 8 2 5 6 9 6 6 5 11 10 15 23 21 10
51 50 47 41 37 38 42 25 25 30 28 27 20 19 23 16 25 30 32 26 21 16 20 32 21 17 18 21 16 13 6 7 6 10 3 12 6 12 6 6 11 21 20
54 44 51 48 38 44 37 31 25 33 24 25 19 22 26 19 23 21 22 28 28 16 24 28 25 17 17 15 8 4 10 12 10 8 8 2 13 8 7 11 12 14 17
56 47 41 51 43 49 43 33 32 29 30 28 27 30 28 21 21 19 21 18 23 28 20 30 19 15 15 17 5 1 3 6 7 11 13 13 14 12 15 6 8 9 12
58 53 47 49 48 57 46 41 38 27 26 34 35 24 26 24 23 22 17 18 26 34 29 30 18 27 17 18 7 6 1 7 11 17 22 7 11 8 12 7 7 6 7
Wind_Direction_850mb
149 138 136 135 128 121 117 108 102 95 91 92 92 93 94 93 92 88 88 90 90 93 97 98 96 99 102 103 100 94 92 96 93 97 96 94 90 91 88 87 87 87 87
143 135 133 141 136 124 118 113 104 98 96 95 98 101 100 100 97 94 91 93 92 94 97 97 98 101 102 99 96 94 92 89 85 91 96 93 91 92 91 87 85 88 85
143 138 134 129 130 125 119 112 106 104 102 104 104 100 100 104 101 100 99 95 95 95 94 97 99 107 106 103 101 96 95 89 85 85 90 92 92 87 86 88 87 87 86
143 139 134 130 126 123 120 114 110 110 103 103 102 99 102 109 106 106 102 100 102 98 98 98 105 114 106 103 102 101 102 92 102 82 87 93 90 89 89 85 87 86 83
140 140 135 132 127 124 118 115 112 106 104 105 107 101 103 112 111 107 109 106 110 101 96 99 108 115 110 104 99 102 101 105 95 73 92 95 90 88 84 85 89 81 87
138 140 135 131 126 122 121 118 119 108 103 105 103 105 103 109 112 115 112 111 110 103 99 99 108 112 117 114 99 108 104 106 82 89 99 92 94 94 92 85 87 94 85
139 137 129 129 126 120 121 115 113 109 109 105 106 106 106 108 113 115 114 110 109 109 105 103 105 117 121 109 102 106 102 89 66 102 98 98 92 94 93 91 80 86 87
139 131 129 131 124 120 120 118 112 109 105 105 106 107 107 111 114 116 115 113 106 106 106 96 107 118 121 109 106 109 103 64 88 99 95 94 94 90 91 88 80 84 84
143 136 132 131 131 124 123 115 110 106 106 106 106 103 105 109 115 116 118 115 108 102 100 97 101 111 122 116 106 106 106 85 82 95 92 93 93 88 90 88 85 82 83
131 139 132 128 125 127 124 112 109 109 107 110 110 102 98 106 114 117 114 109 103 98 95 98 102 107 115 115 103 94 104 86 53 85 90 91 98 97 84 84 82 82 80
127 115 119 124 119 115 110 107 111 114 114 114 108 101 95 97 111 112 109 107 106 105 102 103 110 110 108 118 112 80 109 93 76 92 85 90 92 90 87 85 84 82 77
134 126 125 114 108 114 114 105 113 120 119 113 99 112 98 80 108 113 110 111 114 116 110 110 113 103 91 88 105 94 111 65 68 70 69 83 86 87 85 83 82 81 77
138 142 139 134 128 127 118 109 105 113 109 106 109 108 103 92 117 115 112 117 119 110 106 104 95 78 103 87 83 129 149 80 52 54 63 71 79 82 79 77 76 73 70
143 157 151 136 149 135 128 122 114 114 107 108 110 114 120 116 124 119 116 127 97 108 108 107 97 88 90 76 78 113 148 68 52 49 58 64 68 68 69 67 65 64 60
151 156 146 131 145 145 132 127 112 127 114 116 117 130 133 124 132 119 115 94 107 112 119 114 113 105 119 147 108 111 113 100 63 63 61 62 60 57 57 59 59 57 54
156 164 148 144 138 148 149 129 132 132 129 131 128 136 139 119 129 124 139 144 145 117 120 109 122 125 89 150 157 150 126 82 81 73 52 48 54 53 55 56 56 55 55
158 159 158 148 135 141 152 137 149 146 149 148 145 140 155 153 156 149 145 152 144 137 140 131 128 116 112 91 86 80 139 190 215 78 69 47 40 42 45 58 55 53 53
165 153 156 173 150 152 146 146 158 154 168 159 161 150 157 165 169 162 150 146 130 126 140 145 139 136 147 115 81 75 83 87 123 80 84 63 52 46 43 53 58 53 50
166 152 148 164 174 159 151 152 159 148 132 165 137 151 173 187 157 163 151 151 145 132 140 130 135 115 158 139 115 78 104 73 59 76 71 63 58 26 32 31 56 49 48
172 156 171 167 169 155 158 173 162 154 155 138 118 142 148 168 167 172 169 156 164 151 161 129 136 108 134 159 204 123 93 84 352 340 90 42 43 26 27 35 55 52 52
175 162 178 181 181 162 164 143 156 159 156 118 150 125 131 150 171 164 166 165 158 160 154 164 142 120 119 130 168 159 161 191 244 287 271 112 51 352 19 20 15 32 66
183 176 184 192 193 174 154 156 181 168 178 148 154 139 128 132 178 165 162 167 157 163 168 178 154 132 102 101 148 81 192 254 233 221 196 117 248 291 308 356 21 33 50
184 185 193 193 195 175 167 178 181 191 176 170 171 165 156 164 156 151 156 159 167 170 180 163 162 144 117 104 105 61 99 52 157 179 107 198 227 207 260 303 347 33 23
188 191 199 207 200 168 173 194 190 194 189 172 176 160 165 173 180 161 176 172 181 178 179 181 167 156 144 131 136 61 48 76 61 198 198 86 174 138 229 262 290 13 14
192 197 209 210 205 182 182 196 206 190 183 193 179 164 166 174 169 178 194 184 191 167 173 171 174 187 175 157 20 209 44 30 19 344 291 218 201 155 113 76 341 355 352
198 204 208 211 199 189 188 191 205 206 186 202 181 192 180 179 180 189 192 190 172 167 177 176 179 186 201 177 174 86 339 51 18 28 28 268 228 193 152 160 338 308 325